• Join FlightAware (Why Join?)
  • Login
  • US Flag 
09:59PM EST


 

Airport Tracker/Info


-or-


 

Live Flight TrackerFlight Track Log ✈ JBU56 ✈ 25-Sep-2013 ✈ KIAD - KBOS

Flight Track Log - Related Links

Times and Time Zones

All times are in EDT time to prevent confusion due to time zone crossing. See the JBU56 flight status page for this flight to view local times or setup timezone preferences in your user account.

Time Position Orientation Groundspeed Altitude Reporting Facility
EDT Latitude Longitude Course Direction KTS MPH feet Rate Location/Type
09:12AM 38.9833 -77.5333 90° East 213 245 3,300  Level Potomac TRACON
09:13AM 39.1264 -77.1528 90° East  Level Estimated
09:13AM 39.0500 -77.5000 21° North 267 307 6,300  Level Potomac TRACON
09:13AM 39.1000 -77.4500 38° Northeast 284 327 9,600 1,947 Climbing Potomac TRACON
09:14AM 39.1858 -77.0501 90° East  Level Estimated
09:14AM 39.1500 -77.3500 57° Northeast 334 384 10,000  Level Potomac TRACON
09:15AM 39.2452 -76.9473 74° East  Level Estimated
09:15AM 39.1500 -77.2333 90° East 342 394 10,900  Level Potomac TRACON
09:16AM 39.3045 -76.8442 67° East  Level Estimated
09:17AM 39.3637 -76.7410 90° East  Level Estimated
09:18AM 39.1078 -76.9639 101° East 369 425 16,300  Level Washington Center
09:19AM 39.1156 -76.8250 86° East 374 430 18,700 2,331 Climbing Washington Center
09:20AM 39.1253 -76.6778 85° East 386 444 21,000 2,083 Climbing Washington Center
09:21AM 39.1328 -76.5308 86° East 404 465 22,900 1,017 Climbing Washington Center
09:22AM 39.1422 -76.3758 85° East 417 480 23,000 50 Climbing Washington Center
09:23AM 39.1514 -76.2233 86° East 423 487 23,000  Level Washington Center
09:24AM 39.1731 -76.0519 81° East 428 493 23,000 298 Level Washington Center
09:25AM 39.1942 -75.9022 80° East 428 493 23,600 1,240 Climbing Washington Center
09:26AM 39.2717 -75.7792 51° Northeast 418 481 25,500 1,729 Climbing Washington Center
09:27AM 39.3614 -75.6639 45° Northeast 418 481 27,000 1,563 Climbing Washington Center
09:28AM 39.4511 -75.5486 45° Northeast 439 505 28,600 1,686 Climbing Washington Center
09:29AM 39.5425 -75.4300 45° Northeast 452 520 30,400 809 Climbing Washington Center
09:31AM 39.7136 -75.1994 46° Northeast 467 537 31,000 202 Climbing New York Center
09:32AM 39.8150 -75.0492 49° Northeast 485 558 31,000  Level New York Center
09:33AM 39.9028 -74.9244 47° Northeast 485 558 31,000  Level New York Center
09:34AM 39.9969 -74.7919 47° Northeast 485 558 31,000  Level New York Center
09:35AM 40.0869 -74.6642 47° Northeast 479 551 31,000  Level New York Center
09:36AM 40.1764 -74.5361 48° Northeast 479 551 31,000 -454 Level New York Center
09:37AM 40.2619 -74.4047 50° Northeast 479 551 30,100 -1,065 Descending New York Center
09:39AM 40.4072 -74.1761 50° Northeast 465 535 28,000 -733 Descending Boston Center
09:40AM 40.4842 -74.0472 52° Northeast 465 535 28,000 -197 Level Boston Center
09:41AM 40.5631 -73.9181 51° Northeast 459 528 27,600 -908 Descending Boston Center
09:42AM 40.6417 -73.7883 51° Northeast 459 528 26,200 -1,424 Descending Boston Center
09:43AM 40.7203 -73.6642 50° Northeast 454 522 24,800 -1,091 Descending Boston Center
09:44AM 40.7967 -73.5394 51° Northeast 443 510 24,000 -361 Descending Boston Center
09:45AM 40.8747 -73.4172 50° Northeast 438 504 24,000 -227 Level Boston Center
09:46AM 40.9844 -73.2594 47° Northeast 444 511 23,500 -496 Descending Boston Center
09:47AM 41.0667 -73.1367 48° Northeast 444 511 23,000 -254 Descending Boston Center
09:48AM 41.1319 -72.9939 59° Northeast 444 511 23,000  Level Boston Center
09:49AM 41.1889 -72.8456 63° Northeast 444 511 23,000  Level Boston Center
09:50AM 41.2456 -72.6969 63° Northeast 444 511 23,000  Level Boston Center
09:51AM 41.3019 -72.5478 63° Northeast 452 520 23,000  Level Boston Center
09:52AM 41.3564 -72.4153 61° Northeast 447 514 23,000 -248 Level Boston Center
09:53AM 41.4186 -72.2519 63° Northeast 442 509 22,500 -1,322 Descending Boston Center
09:54AM 41.4703 -72.1075 64° Northeast 442 509 20,400 -2,168 Descending Boston Center
09:55AM 41.5200 -71.9825 62° Northeast 430 495 18,200 -2,281 Descending Boston Center
09:56AM 41.5775 -71.8297 63° Northeast 414 476 15,800 -2,083 Descending Boston Center
09:57AM 41.6206 -71.7125 64° Northeast 394 453 14,000 -1,884 Descending Boston Center
09:58AM 41.6719 -71.5731 64° Northeast 383 441 12,000 -1,525 Descending Boston Center
09:59AM 41.7106 -71.4694 63° Northeast 361 415 11,000 -504 Descending Boston Center
10:00AM 41.7575 -71.3686 58° Northeast 307 353 11,000  Level Boston Center
10:01AM 41.8047 -71.2900 51° Northeast 285 328 11,000 -347 Level Boston Center
10:02AM 41.8750 -71.2383 29° Northeast 267 307 10,300 -1,475 Descending Boston Center
10:03AM 41.9456 -71.2064 19° North 267 307 8,100 -2,067 Descending Boston Center
10:04AM 42.0119 -71.1744 20° North 261 300 6,200 -1,587 Descending Boston Center
10:05AM 42.0597 -71.1511 20° North 261 300 4,900 -1,100 Descending Boston Center
10:06AM 42.1447 -71.1128 18° North 254 292 4,000 -843 Descending Boston Center
10:07AM 42.1986 -71.0864 20° North 219 252 3,200 -864 Descending Boston Center
10:08AM 42.2461 -71.0603 22° Northeast 190 219 2,300 -908 Descending Boston Center
10:09AM 42.2875 -71.0425 18° North 162 186 1,400 -590 Descending Boston Center
10:10AM 42.3269 -71.0247 18° North 153 176 1,100 -450 Descending Boston Center
10:11AM 42.3581 -71.0128 16° North 147 169 500 10,860 Descending Boston Center
10:12AM 42.3953 -70.9978 17° North 147 169 23,000 11,250 Climbing Boston Center
10:13AM 42.4306 -70.9831 17° North 147 169 23,000  Level Boston Center
10:15AM 42.3630 -71.0064 North  Level Estimated
10:22AM 42.3630 -71.0064 North  Level Estimated